• In Hungary
  • List of Countries
  • For 7 days
  • Water Temperature
  • Satellite Maps
  • Weather Map
  • News
  • Weather Widgets
  • user-avatar
    Login

    Hourly Weather Barisal

    Today, 20 August, Sunday

    Time Temperature Precipitation Wind Pressure Humidity
    00:00 +30°C° 0 mm 3 mps 754 mmHg 82%
    01:00 +30°C° 0.3 mm 3 mps 753 mmHg 83%
    02:00 +30°C° 0.3 mm 3 mps 753 mmHg 85%
    03:00 +29°C° 0.3 mm 3 mps 753 mmHg 86%
    04:00 +29°C° 0.2 mm 3 mps 753 mmHg 86%
    05:00 +29°C° 0.2 mm 3 mps 753 mmHg 86%
    06:00 +29°C° 0 mm 2 mps 753 mmHg 87%
    07:00 +30°C° 0 mm 3 mps 753 mmHg 81%
    08:00 +33°C° 0 mm 3 mps 753 mmHg 74%
    09:00 +34°C° 0 mm 4 mps 753 mmHg 67%
    10:00 +35°C° 0.3 mm 4 mps 753 mmHg 65%
    11:00 +35°C° 0.3 mm 5 mps 753 mmHg 62%
    12:00 +36°C° 0 mm 4 mps 753 mmHg 60%
    13:00 +36°C° 0.1 mm 4 mps 752 mmHg 59%
    14:00 +36°C° 0.1 mm 4 mps 752 mmHg 58%
    15:00 +36°C° 0.1 mm 4 mps 751 mmHg 57%
    16:00 +35°C° 0 mm 4 mps 751 mmHg 60%
    17:00 +35°C° 0 mm 4 mps 751 mmHg 64%
    18:00 +34°C° 0 mm 4 mps 751 mmHg 67%
    19:00 +33°C° 0 mm 3 mps 751 mmHg 71%
    20:00 +33°C° 0 mm 3 mps 752 mmHg 74%
    21:00 +31°C° 0 mm 3 mps 752 mmHg 78%
    22:00 +31°C° 0.1 mm 2 mps 752 mmHg 79%
    23:00 +31°C° 0.1 mm 2 mps 752 mmHg 80%

    Tomorrow, 21 August, Monday

    Time Temperature Precipitation Wind Pressure Humidity
    00:00 +30°C° 0.1 mm 2 mps 753 mmHg 82%
    01:00 +30°C° 0.2 mm 2 mps 752 mmHg 83%
    02:00 +30°C° 0.2 mm 2 mps 752 mmHg 84%
    03:00 +30°C° 0.2 mm 1 mps 751 mmHg 85%
    04:00 +30°C° 0 mm 1 mps 752 mmHg 85%
    05:00 +30°C° 0 mm 1 mps 752 mmHg 86%
    06:00 +30°C° 0 mm 1 mps 752 mmHg 87%
    07:00 +31°C° 0.3 mm 1 mps 752 mmHg 79%
    08:00 +32°C° 0.3 mm 2 mps 752 mmHg 72%
    09:00 +34°C° 0.3 mm 2 mps 753 mmHg 65%
    10:00 +35°C° 0 mm 2 mps 752 mmHg 61%
    11:00 +36°C° 0 mm 3 mps 752 mmHg 57%
    12:00 +37°C° 0 mm 3 mps 752 mmHg 52%
    13:00 +37°C° 0 mm 3 mps 751 mmHg 52%
    14:00 +37°C° 0 mm 3 mps 750 mmHg 52%
    15:00 +37°C° 0 mm 3 mps 750 mmHg 52%
    16:00 +36°C° 0 mm 3 mps 750 mmHg 56%
    17:00 +36°C° 0 mm 3 mps 750 mmHg 59%
    18:00 +35°C° 0 mm 4 mps 749 mmHg 63%
    19:00 +34°C° 0 mm 4 mps 750 mmHg 67%
    20:00 +33°C° 0 mm 3 mps 751 mmHg 70%
    21:00 +31°C° 0 mm 3 mps 751 mmHg 74%
    22:00 +31°C° 0.3 mm 3 mps 751 mmHg 75%
    23:00 +31°C° 0.3 mm 2 mps 751 mmHg 77%

    Day after tomorrow, 22 August, Tuesday

    Time Temperature Precipitation Wind Pressure Humidity
    00:00 +31°C° 0.3 mm 2 mps 751 mmHg 78%
    01:00 +30°C° 0.6 mm 2 mps 751 mmHg 79%
    02:00 +30°C° 0.6 mm 2 mps 751 mmHg 80%
    03:00 +30°C° 0.6 mm 2 mps 750 mmHg 81%
    04:00 +30°C° 0.2 mm 2 mps 751 mmHg 82%
    05:00 +30°C° 0.2 mm 1 mps 751 mmHg 83%
    06:00 +29°C° 0.2 mm 1 mps 751 mmHg 84%
    07:00 +31°C° 0 mm 1 mps 751 mmHg 77%
    08:00 +32°C° 0 mm 1 mps 752 mmHg 70%
    09:00 +33°C° 0 mm 1 mps 752 mmHg 63%
    10:00 +34°C° 0.1 mm 1 mps 752 mmHg 59%
    11:00 +36°C° 0.1 mm 2 mps 752 mmHg 55%
    12:00 +37°C° 0.1 mm 2 mps 751 mmHg 50%
    13:00 +37°C° 0.1 mm 2 mps 751 mmHg 51%
    14:00 +37°C° 0.1 mm 3 mps 750 mmHg 51%
    15:00 +37°C° 0.1 mm 3 mps 749 mmHg 51%
    16:00 +36°C° 0 mm 3 mps 749 mmHg 55%
    17:00 +36°C° 0 mm 3 mps 749 mmHg 58%
    18:00 +35°C° 0 mm 3 mps 750 mmHg 62%
    19:00 +34°C° 0.1 mm 3 mps 750 mmHg 66%
    20:00 +33°C° 0.1 mm 3 mps 751 mmHg 69%
    21:00 +33°C° 0.1 mm 3 mps 751 mmHg 73%
    22:00 +31°C° 0.5 mm 3 mps 751 mmHg 74%
    23:00 +31°C° 0.5 mm 2 mps 751 mmHg 75%

    23 August, Wednesday

    Time Temperature Precipitation Wind Pressure Humidity
    00:00 +31°C° 0.5 mm 2 mps 751 mmHg 77%
    01:00 +31°C° 0.6 mm 2 mps 751 mmHg 78%
    02:00 +30°C° 0.6 mm 1 mps 751 mmHg 79%
    03:00 +30°C° 0.6 mm 1 mps 751 mmHg 80%
    04:00 +30°C° 0.2 mm 1 mps 751 mmHg 79%
    05:00 +30°C° 0.2 mm 1 mps 751 mmHg 79%
    06:00 +28°C° 0.2 mm 0 mps 752 mmHg 79%
    07:00 +31°C° 0 mm 1 mps 752 mmHg 72%
    08:00 +34°C° 0 mm 2 mps 752 mmHg 66%
    09:00 +35°C° 0 mm 3 mps 753 mmHg 60%
    10:00 +36°C° 0 mm 3 mps 753 mmHg 57%
    11:00 +37°C° 0 mm 4 mps 752 mmHg 54%
    12:00 +38°C° 0 mm 4 mps 752 mmHg 51%
    13:00 +37°C° 0.4 mm 4 mps 751 mmHg 53%
    14:00 +37°C° 0.4 mm 4 mps 750 mmHg 54%
    15:00 +37°C° 0.4 mm 5 mps 750 mmHg 56%
    16:00 +36°C° 0.7 mm 4 mps 750 mmHg 59%
    17:00 +35°C° 0.7 mm 4 mps 750 mmHg 63%
    18:00 +34°C° 0.7 mm 4 mps 750 mmHg 67%
    19:00 +34°C° 0 mm 4 mps 751 mmHg 70%
    20:00 +33°C° 0 mm 3 mps 752 mmHg 73%
    21:00 +31°C° 0 mm 3 mps 752 mmHg 76%
    22:00 +31°C° 0 mm 3 mps 752 mmHg 77%
    23:00 +31°C° 0 mm 3 mps 752 mmHg 78%

    24 August, Thursday

    Time Temperature Precipitation Wind Pressure Humidity
    00:00 +31°C° 0 mm 3 mps 752 mmHg 80%
    01:00 +30°C° 0.3 mm 3 mps 752 mmHg 81%
    02:00 +30°C° 0.3 mm 3 mps 751 mmHg 81%
    03:00 +30°C° 0.3 mm 3 mps 751 mmHg 82%
    04:00 +30°C° 0.4 mm 3 mps 751 mmHg 83%
    05:00 +30°C° 0.4 mm 3 mps 752 mmHg 83%
    06:00 +30°C° 0.4 mm 3 mps 752 mmHg 84%
    07:00 +30°C° 0.1 mm 4 mps 752 mmHg 80%
    08:00 +32°C° 0.1 mm 4 mps 753 mmHg 76%
    09:00 +33°C° 0.1 mm 4 mps 753 mmHg 73%
    10:00 +34°C° 0.2 mm 5 mps 753 mmHg 69%
    11:00 +35°C° 0.2 mm 5 mps 752 mmHg 65%
    12:00 +36°C° 0.2 mm 5 mps 752 mmHg 61%
    13:00 +36°C° 0.4 mm 5 mps 751 mmHg 61%
    14:00 +36°C° 0.4 mm 5 mps 750 mmHg 61%
    15:00 +36°C° 0.4 mm 5 mps 750 mmHg 61%
    16:00 +35°C° 0.3 mm 5 mps 750 mmHg 65%
    17:00 +34°C° 0.3 mm 5 mps 750 mmHg 68%
    18:00 +34°C° 0.3 mm 5 mps 750 mmHg 71%
    19:00 +33°C° 0 mm 4 mps 751 mmHg 74%
    20:00 +33°C° 0 mm 4 mps 751 mmHg 77%
    21:00 +32°C° 0 mm 4 mps 752 mmHg 79%
    22:00 +31°C° 0 mm 3 mps 752 mmHg 80%
    23:00 +31°C° 0 mm 3 mps 752 mmHg 81%

    25 August, Friday

    Time Temperature Precipitation Wind Pressure Humidity
    00:00 +30°C° 0 mm 3 mps 752 mmHg 82%
    01:00 +30°C° 0 mm 3 mps 751 mmHg 83%
    02:00 +30°C° 0 mm 2 mps 751 mmHg 84%
    03:00 +30°C° 0 mm 2 mps 750 mmHg 85%
    04:00 +30°C° 0.6 mm 2 mps 751 mmHg 85%
    05:00 +30°C° 0.6 mm 2 mps 751 mmHg 85%
    06:00 +30°C° 0.6 mm 2 mps 751 mmHg 86%
    07:00 +31°C° 0.3 mm 3 mps 751 mmHg 79%
    08:00 +33°C° 0.3 mm 3 mps 752 mmHg 72%
    09:00 +34°C° 0.3 mm 4 mps 752 mmHg 66%
    10:00 +35°C° 0 mm 4 mps 751 mmHg 63%
    11:00 +36°C° 0 mm 5 mps 751 mmHg 59%
    12:00 +37°C° 0 mm 5 mps 750 mmHg 56%
    13:00 +37°C° 0 mm 5 mps 750 mmHg 57%
    14:00 +37°C° 0 mm 5 mps 749 mmHg 58%
    15:00 +37°C° 0 mm 5 mps 749 mmHg 59%
    16:00 +36°C° 0 mm 5 mps 749 mmHg 62%
    17:00 +35°C° 0 mm 5 mps 749 mmHg 66%
    18:00 +34°C° 0 mm 5 mps 749 mmHg 70%
    19:00 +33°C° 0 mm 5 mps 749 mmHg 72%
    20:00 +33°C° 0 mm 4 mps 750 mmHg 75%
    21:00 +32°C° 0 mm 4 mps 750 mmHg 78%
    22:00 +32°C° 0.1 mm 4 mps 750 mmHg 79%
    23:00 +31°C° 0.1 mm 3 mps 750 mmHg 80%
    Show more